Wind_Speed
21 22 21 24 28 28 29 29 27 26 25 28 25 22 22 19 16 13 13 13 12 12 12 11 12 12 14 13 17 19 11 11
22 23 23 22 25 27 29 29 28 28 27 25 23 22 18 18 18 16 14 14 14 13 14 13 14 15 17 16 20 18 11 12
22 23 23 23 21 25 26 26 26 25 23 23 19 15 16 14 15 17 16 14 14 13 14 14 15 17 19 19 20 12 12 12
22 22 23 21 24 26 23 26 24 22 20 21 18 17 13 16 16 18 17 16 16 15 16 18 13 12 15 17 15 14 15 17
24 21 22 23 29 28 27 21 20 21 19 19 16 15 17 14 12 12 13 15 12 15 18 10 9 12 11 15 16 15 16 17
28 26 23 23 22 24 30 27 25 22 22 18 16 15 14 14 12 9 10 10 13 12 12 13 12 14 14 16 15 14 15 14
29 29 25 23 28 27 26 22 22 26 24 18 16 14 15 14 13 11 10 10 12 12 15 16 15 16 15 16 16 15 15 13
32 30 32 30 29 30 30 28 24 27 26 25 22 20 20 17 16 14 13 11 12 14 16 17 17 16 17 16 15 15 14 14
32 33 31 32 28 28 29 30 28 28 28 26 25 23 22 20 19 17 14 14 14 14 15 16 17 15 18 16 16 15 14 13
28 36 29 32 31 30 26 29 24 28 28 27 27 26 23 22 22 18 17 16 16 15 15 16 17 16 16 14 15 14 14 13
29 29 35 28 27 27 27 27 28 28 27 26 25 20 21 23 20 18 19 18 17 18 17 18 18 16 15 13 14 12 13 13
29 29 34 31 31 29 22 25 25 27 27 22 23 20 20 18 17 19 20 21 21 18 18 18 20 20 17 17 13 12 12 11
30 30 34 38 35 31 26 26 23 22 21 26 25 20 20 19 17 18 19 19 21 22 20 21 21 23 22 18 14 12 11 10
29 30 33 36 38 33 29 28 26 24 21 21 25 22 21 20 19 20 19 20 24 26 27 23 21 23 10 13 6 7 9 8
30 31 32 36 36 31 27 24 21 23 24 23 22 25 21 21 20 20 20 20 20 24 25 24 19 19 17 3 4 3 12 5
29 30 32 33 33 33 33 33 28 26 27 24 23 24 24 21 22 19 20 18 20 21 22 20 15 18 16 6 2 13 4 5
25 29 31 34 37 35 33 28 27 26 26 25 23 22 22 22 25 22 21 20 20 21 22 20 18 16 14 12 8 5 7 6
23 28 31 35 38 37 36 33 29 27 27 26 25 24 22 22 23 21 21 21 22 22 21 18 16 14 13 13 10 6 9 6
18 22 26 29 35 37 37 36 34 32 32 30 27 25 24 24 24 22 20 20 20 19 19 17 16 15 14 11 9 8 8 9
16 21 25 28 31 33 34 35 35 34 34 30 29 28 27 24 21 23 21 19 18 17 17 16 16 15 13 11 10 9 9 11
Wind_Direction
175 177 180 182 182 181 180 178 175 173 172 172 181 179 173 163 159 160 154 150 147 151 147 145 140 135 122 117 112 97 90 88
182 179 179 181 184 184 178 179 178 173 172 176 181 180 172 169 167 160 157 159 157 156 145 144 141 139 131 122 99 91 92 88
183 182 183 177 178 188 181 179 176 176 176 180 177 164 154 142 160 152 152 153 153 151 151 147 143 137 130 117 91 103 97 86
184 180 179 172 169 177 171 174 175 174 173 175 165 164 162 150 153 148 145 151 149 152 146 135 135 134 115 93 110 110 96 81
183 183 178 172 172 171 176 169 175 177 171 171 170 166 157 149 147 142 138 141 144 138 137 140 162 136 117 113 117 111 106 85
187 182 184 178 174 175 180 181 180 185 184 170 170 170 168 162 160 166 161 157 148 141 142 140 135 119 117 115 115 116 114 95
194 190 179 183 187 182 184 184 183 189 182 178 179 178 171 167 168 168 165 155 151 147 141 136 128 116 114 113 113 116 117 110
199 195 194 184 189 192 192 192 184 188 188 188 179 182 179 179 186 181 166 154 163 160 153 141 132 124 113 113 113 112 112 109
199 197 195 193 190 195 194 193 194 195 195 192 190 190 197 195 189 177 170 170 156 158 146 134 126 126 116 113 109 105 104 105
199 200 195 195 194 193 194 195 192 194 194 192 195 196 194 190 182 169 171 163 160 159 149 140 134 129 123 123 111 107 101 97
200 198 200 191 195 195 196 196 193 191 190 192 193 189 189 183 176 174 166 159 163 160 157 152 142 132 126 120 108 107 100 98
201 198 196 191 193 192 184 187 188 193 195 191 196 188 183 183 180 173 170 162 161 168 164 154 148 139 130 110 107 103 101 98
201 193 187 190 186 178 181 187 186 188 192 195 192 186 182 182 180 173 171 171 165 162 160 156 150 143 125 110 105 101 99 98
205 196 188 191 189 186 189 190 191 189 187 188 183 183 183 180 179 178 177 172 170 166 163 167 166 164 151 140 150 125 100 94
210 204 195 192 190 182 184 185 184 183 185 183 187 185 183 179 176 179 179 173 178 175 171 178 170 182 184 243 174 153 146 103
211 204 194 193 187 182 179 184 183 190 182 179 181 185 179 179 178 180 177 181 180 184 183 183 181 183 186 222 336 130 176 151
215 206 197 192 187 188 182 190 194 181 179 176 177 180 184 183 181 176 181 180 184 189 191 193 193 187 191 176 154 139 152 161
216 208 201 192 188 188 186 187 182 177 178 175 175 178 181 182 175 178 177 182 181 188 189 189 189 191 193 195 185 182 185 172
222 214 207 201 192 191 187 184 176 175 175 175 169 177 181 180 176 172 178 177 178 181 187 187 189 193 192 195 201 201 186 187
224 217 211 205 197 194 191 185 176 176 174 176 176 180 178 176 176 164 171 168 169 171 176 179 186 185 181 185 186 187 178 181
Height
775 779 784 787 787 788 789 793 796 799 801 802 810 814 814 813 815 817 818 819 822 824 825 826 825 827 827 831 830 830 835 836
773 775 779 785 788 789 790 792 796 798 800 806 809 813 815 813 812 815 818 820 820 824 825 826 826 828 827 832 826 833 836 838
770 774 777 779 786 788 792 795 797 799 801 805 811 817 815 815 816 815 816 820 820 822 825 826 828 831 829 831 827 835 837 839
769 771 773 778 779 786 792 793 797 800 804 808 811 812 816 815 817 816 815 820 822 822 824 827 833 834 832 829 833 838 839 840
764 771 772 774 778 782 787 792 797 801 804 807 810 814 814 816 820 821 819 821 824 823 826 831 835 832 833 833 836 838 841 843
760 761 770 772 776 780 783 788 792 798 803 806 809 811 814 814 817 822 824 824 823 824 827 831 834 833 835 835 838 840 843 846
758 760 761 769 773 775 781 786 790 794 798 803 806 809 810 813 817 819 820 822 822 825 828 831 834 834 837 838 840 842 844 846
751 755 759 761 769 772 775 780 785 788 793 796 799 803 806 809 813 815 819 822 826 828 830 831 832 835 837 841 843 844 846 848
746 751 753 758 761 771 773 776 781 785 788 792 795 798 802 805 808 812 818 824 825 831 831 830 832 837 837 843 844 846 847 849
745 746 749 754 759 764 771 773 777 781 786 789 793 795 797 801 805 810 815 820 824 829 831 833 835 838 840 845 845 848 848 849
737 743 745 748 756 761 767 771 774 779 784 787 791 793 796 798 802 807 810 814 822 826 829 832 835 839 844 848 847 850 849 851
731 737 740 744 749 757 763 768 771 776 781 784 789 792 795 800 802 803 807 809 816 825 829 831 833 837 844 844 850 851 851 853
724 729 732 735 743 749 756 762 767 771 776 779 783 789 792 797 801 803 807 810 812 818 826 831 835 835 841 845 850 851 852 853
722 724 727 731 735 741 748 755 761 766 771 776 780 785 788 792 797 802 805 808 810 812 817 828 833 831 833 839 846 853 853 854
715 718 722 725 730 737 743 752 758 762 766 770 775 780 784 788 792 798 802 805 811 812 814 821 823 828 831 830 831 828 849 855
709 713 715 721 728 732 733 738 744 751 757 764 770 775 779 783 788 794 797 803 807 812 816 820 822 824 829 831 829 830 833 850
702 707 709 713 718 724 729 737 743 747 753 759 764 771 776 779 783 788 794 799 804 809 813 816 819 822 824 827 829 831 832 836
695 699 702 704 708 714 720 727 735 741 748 754 759 766 772 777 779 785 788 795 799 805 809 812 815 819 822 825 825 827 830 832
693 697 700 705 704 707 711 717 724 731 739 747 754 762 767 772 776 780 787 791 795 800 804 807 811 816 819 822 824 826 827 831
692 693 695 700 703 705 708 712 716 724 731 739 746 754 762 768 774 774 783 787 791 795 800 804 809 812 815 820 823 826 828 830